RH
22 22 21 16 15 11 8 10 10 20 50 79 100 100 100 100 97 80 100 90 67 75 74 77 79 68 90 85 93 100 90 80 100 100 92 90 95 80 68 61 59 72 77
20 14 15 15 12 11 13 13 14 61 73 98 100 100 99 100 88 100 96 64 56 65 98 98 77 92 100 100 98 86 82 87 80 84 92 83 67 71 76 62 62 61 71
16 14 12 10 14 16 19 22 16 76 98 100 100 100 87 100 100 86 99 52 64 96 100 100 90 100 100 100 100 96 100 100 95 89 82 74 70 73 67 63 56 58 59
19 16 11 12 16 23 77 72 59 100 100 100 88 100 100 100 100 100 98 70 100 100 92 100 98 100 100 100 100 93 84 84 85 83 78 62 59 56 62 60 56 51 50
23 22 15 12 23 64 59 60 68 100 100 100 100 100 100 100 92 73 100 83 76 80 100 100 100 94 100 100 100 94 86 73 66 66 56 57 59 55 50 49 47 49 49
31 41 34 57 72 64 64 68 82 100 100 100 95 100 100 99 100 100 100 100 97 65 61 100 100 100 100 100 100 100 94 76 64 58 51 43 40 42 45 52 55 49 46
49 69 89 87 78 81 100 100 99 84 100 99 100 100 100 98 100 96 100 96 100 52 46 77 100 100 100 98 95 100 83 75 65 58 57 53 41 39 44 53 46 42 37
49 72 84 80 82 100 100 100 100 100 100 100 100 100 100 100 100 100 89 100 100 89 39 74 53 54 52 56 85 97 88 84 77 67 61 52 41 42 48 49 48 42 40
48 62 62 64 92 100 100 100 100 100 100 100 100 100 100 100 98 100 99 85 100 100 100 100 96 80 80 72 56 75 88 91 75 60 46 41 34 40 47 40 48 52 46
40 61 43 71 98 100 100 98 100 100 100 100 100 100 100 100 100 100 100 100 87 65 62 74 93 98 94 96 100 92 78 61 51 51 35 31 31 39 47 53 55 54 49
38 80 70 100 100 100 100 100 100 100 94 100 100 100 100 100 100 100 100 100 97 100 99 68 50 49 54 100 87 62 57 35 26 37 32 35 100 85 70 73 63 53 59
42 75 100 100 100 100 100 100 100 100 100 100 100 100 100 100 100 100 100 100 100 100 100 99 100 100 99 68 36 37 35 42 46 96 91 92 100 95 84 91 77 67 62
44 51 100 100 100 100 100 100 100 100 100 100 100 100 100 93 88 99 100 100 89 98 100 97 87 60 66 78 91 97 92 52 100 80 87 100 96 100 97 84 71 63 54
40 70 100 100 100 100 100 100 100 100 100 100 100 100 100 97 94 100 100 100 100 49 88 96 74 88 100 100 98 100 81 92 100 97 74 93 84 89 86 81 73 65 48
34 65 95 100 100 100 100 100 100 100 100 100 100 100 100 100 100 100 100 100 100 100 100 100 74 64 57 70 61 45 61 58 82 85 100 100 100 96 88 88 62 56 47
32 40 77 100 100 100 100 100 100 98 100 100 100 100 99 98 78 100 100 100 99 86 71 68 46 50 43 49 41 40 50 69 78 99 100 100 100 98 80 61 57 49 40
57 38 67 93 100 100 100 100 100 100 86 92 100 100 100 87 90 83 100 93 100 80 53 43 58 100 92 58 96 67 85 100 100 100 100 100 100 79 65 60 44 31 25
75 52 49 64 85 100 100 99 100 100 99 79 96 100 100 100 96 100 96 100 100 100 100 100 100 100 100 100 100 100 100 100 100 100 99 83 72 59 49 41 37 26 26
28 69 52 54 60 81 95 96 82 98 100 99 60 82 100 100 100 98 100 100 94 100 100 97 100 100 100 98 100 100 95 97 90 82 75 64 63 57 46 38 29 22 27
29 26 56 74 54 68 74 90 92 86 93 95 100 95 86 98 100 100 94 82 100 100 96 87 85 78 89 98 100 100 100 100 93 92 80 69 65 55 47 43 38 39 36
45 32 24 34 69 61 47 52 67 78 76 89 85 100 94 86 96 100 100 100 93 89 93 84 87 93 73 78 77 81 84 84 77 63 61 57 48 44 40 39 34 36 34
43 41 49 23 24 45 71 68 52 52 66 76 97 99 92 76 67 82 72 81 84 85 84 76 76 68 83 79 66 69 69 62 59 54 49 50 42 37 48 39 54 49 34
65 55 46 78 67 30 28 46 72 81 79 66 69 80 95 97 66 72 62 55 56 79 80 88 96 76 84 87 75 58 62 57 57 61 52 44 44 43 48 51 64 67 58
78 83 64 51 79 100 81 44 33 57 82 93 89 81 67 81 100 95 90 73 70 56 74 76 81 64 81 82 78 68 80 83 76 67 65 51 46 48 46 40 47 57 48
79 80 80 70 62 67 90 100 100 47 34 66 87 99 94 81 65 83 93 99 100 100 96 96 75 87 80 81 80 76 66 70 68 70 64 55 50 44 40 37 50 47 37
99 92 98 78 76 67 77 83 100 100 87 40 37 61 81 93 99 81 67 65 66 70 78 98 98 91 85 87 78 79 67 75 71 69 63 58 54 46 40 34 36 35 35
Wind_Speed
61 62 62 60 53 45 38 29 26 30 36 38 41 33 33 40 37 31 33 31 25 26 27 30 31 26 27 29 31 32 33 32 29 30 30 30 30 35 39 39 41 36 38
62 62 59 53 49 42 30 21 29 41 34 45 43 38 42 35 31 28 28 32 29 26 29 29 27 27 25 32 31 35 34 35 34 32 31 33 34 33 33 34 35 34 35
62 57 51 48 43 30 19 18 34 48 50 47 43 42 41 33 29 29 25 30 35 29 31 32 30 31 29 33 34 34 33 34 33 32 30 31 31 30 32 32 33 33 35
51 49 48 34 25 21 15 26 41 58 52 50 51 50 42 37 33 24 34 29 26 27 28 33 33 34 31 39 30 29 29 30 31 32 33 32 31 31 32 31 31 33 34
41 40 26 11 18 20 21 33 47 59 54 50 44 43 41 34 31 42 35 38 36 30 33 35 35 34 36 36 33 31 30 30 30 31 29 31 34 34 32 31 30 30 29
33 21 1 15 20 19 28 34 50 50 48 44 51 45 51 50 39 37 38 30 34 35 37 35 33 35 38 40 39 35 36 33 32 31 29 29 29 30 31 33 32 31 31
22 10 10 19 23 30 30 35 38 51 43 46 50 48 48 56 42 39 39 33 34 29 37 34 36 39 33 33 35 37 33 32 31 33 33 31 32 29 27 29 29 29 31
23 17 16 22 32 40 35 35 37 56 36 44 49 46 49 50 53 45 43 34 28 30 34 38 37 38 41 38 35 36 33 33 32 34 33 29 27 30 32 34 32 32 30
23 21 21 27 39 39 41 49 44 57 53 45 47 41 42 54 51 49 46 43 40 43 36 39 41 40 38 38 39 42 41 35 37 34 33 33 32 35 35 37 39 36 32
23 23 25 32 37 37 44 49 46 46 54 47 54 51 47 48 48 37 40 42 35 36 36 35 37 33 41 47 42 44 42 38 35 36 36 37 38 37 42 41 37 38 32
23 19 28 38 32 31 35 36 34 48 46 42 43 46 41 44 51 42 35 39 31 41 40 37 39 40 41 40 37 36 36 35 37 38 38 43 36 37 38 37 32 28 28
25 25 39 38 34 40 40 40 37 45 44 43 39 37 43 41 38 43 38 38 42 39 47 41 46 42 37 38 41 44 40 38 37 30 37 35 39 35 32 26 24 27 30
26 38 38 42 40 45 44 48 45 39 41 51 46 43 44 52 50 44 41 45 48 47 48 46 45 47 45 40 38 43 39 38 37 36 35 35 25 33 36 33 32 35 35
30 45 44 47 44 44 42 45 47 36 47 45 49 46 46 49 49 57 52 43 49 54 52 52 44 44 43 44 46 45 39 37 42 35 39 40 38 37 37 40 41 40 42
30 49 54 50 49 39 48 49 44 33 44 45 44 51 48 48 50 60 53 57 47 42 49 41 40 40 44 46 50 44 41 43 46 50 50 44 40 38 36 39 44 47 47
27 44 61 53 48 53 52 43 46 39 47 40 43 44 52 48 51 53 59 58 52 48 49 53 54 52 48 52 51 46 47 49 51 54 46 49 43 44 46 49 52 54 57
36 41 63 63 49 55 55 54 49 48 53 52 46 37 50 56 52 58 52 51 44 52 58 46 47 52 53 51 55 50 51 51 53 48 48 51 53 54 56 59 62 63 66
38 42 58 65 66 55 59 57 56 57 58 60 57 53 49 51 53 56 61 63 66 57 50 56 50 49 50 54 55 52 54 54 51 52 59 62 61 65 67 69 69 70 74
35 44 48 63 71 68 63 67 65 60 56 59 70 62 58 57 55 63 66 66 63 71 62 63 62 58 55 57 64 65 64 67 68 68 69 69 68 71 71 73 76 81 82
31 37 49 53 58 73 71 69 72 70 70 65 65 73 68 62 63 62 68 73 67 66 67 71 68 67 68 65 65 64 61 61 63 64 68 71 72 74 75 75 76 76 80
39 38 39 51 58 63 67 77 78 80 77 78 77 71 76 78 72 70 68 73 77 73 71 71 73 70 74 72 74 73 73 74 73 71 73 76 78 80 80 82 85 83 81
45 45 45 45 48 62 66 66 71 75 76 78 78 76 77 84 86 83 77 75 77 80 78 79 80 81 76 78 78 75 78 77 78 80 79 79 82 84 80 85 81 79 80
54 51 51 50 50 51 56 68 71 72 73 75 82 82 83 80 85 86 90 91 87 84 84 82 83 85 87 84 87 88 85 86 88 86 86 86 86 88 82 83 83 80 78
59 58 57 57 56 55 57 56 63 75 75 74 75 78 82 82 84 84 84 89 91 93 91 87 88 91 88 90 89 89 87 86 89 87 85 88 88 87 82 85 84 80 76
66 65 65 65 64 65 62 61 64 63 74 80 80 79 82 83 86 88 88 89 87 88 88 88 93 91 92 92 90 91 93 92 93 90 87 88 88 86 82 81 77 75 74
72 72 72 69 69 71 72 71 69 69 71 71 80 86 85 84 86 88 89 90 92 92 92 92 92 94 94 92 93 91 95 94 93 87 84 84 83 84 84 81 79 78 77
Wind_Direction
296 297 296 296 292 288 281 259 221 196 195 183 189 192 215 222 224 228 225 226 227 227 229 230 232 236 239 238 232 233 224 230 224 219 225 230 230 237 239 245 246 247 251
299 297 297 293 289 285 270 228 189 177 183 179 186 190 216 209 226 231 229 231 234 233 233 236 233 231 232 223 225 224 225 225 229 231 227 229 235 238 234 240 240 244 241
299 299 295 288 278 266 236 183 174 177 175 176 182 190 210 199 215 222 220 227 226 223 228 227 235 226 230 217 217 224 218 219 223 225 225 228 230 229 231 233 239 241 242
302 301 300 280 259 220 185 175 171 174 176 182 186 188 202 199 185 211 226 220 217 224 224 231 227 225 231 218 209 213 211 217 224 228 230 235 234 233 233 236 238 237 237
305 304 300 251 196 176 181 169 169 178 180 182 186 203 184 192 203 216 223 236 240 234 230 237 228 225 218 214 230 221 220 220 226 232 232 236 237 238 239 239 237 238 240
302 306 219 152 163 167 156 162 171 174 175 196 190 197 198 196 199 204 217 223 226 228 228 229 231 233 232 231 239 236 239 232 232 236 233 240 240 238 241 243 241 241 244
285 266 214 180 176 148 152 159 176 172 176 192 195 192 193 198 205 203 208 217 219 223 228 229 235 237 233 236 245 231 236 239 235 237 241 242 243 242 240 233 235 238 241
272 245 237 210 167 152 154 162 177 179 177 179 199 202 196 208 215 218 211 213 222 224 233 235 242 241 245 245 240 220 223 227 235 245 245 240 241 236 233 230 240 242 247
264 246 230 212 172 159 165 167 179 186 186 173 184 198 208 213 214 217 217 224 229 233 228 231 235 234 241 240 243 238 238 238 245 240 240 242 242 242 240 243 240 247 248
263 253 220 184 174 174 180 178 178 191 202 200 195 203 212 217 210 209 216 228 234 235 236 238 238 234 238 240 243 241 243 242 245 244 251 250 250 241 239 238 245 245 251
257 241 197 170 173 180 179 187 190 189 205 214 209 212 210 209 210 210 223 224 238 231 230 240 240 238 241 243 250 250 252 256 259 247 248 245 245 242 246 245 243 247 254
240 219 183 176 190 190 195 196 197 193 198 199 209 213 211 208 211 215 220 224 234 229 230 233 233 233 239 239 253 258 251 256 249 251 238 241 243 240 237 231 253 258 263
225 209 196 194 199 200 196 199 199 210 205 207 217 213 222 222 219 217 220 236 238 233 234 240 237 247 245 247 255 250 244 249 248 248 250 242 252 237 234 246 275 274 280
222 207 200 198 204 203 206 206 208 215 214 217 221 220 220 222 230 221 219 234 229 230 238 241 239 233 230 238 240 257 248 252 246 259 256 247 259 252 258 267 281 282 283
212 207 199 202 209 215 214 214 213 226 226 226 227 230 229 223 227 224 228 237 239 235 230 235 237 240 244 243 246 257 251 245 251 259 254 244 263 268 269 273 280 283 285
231 219 205 207 215 217 218 226 230 229 226 227 229 235 232 231 230 229 231 233 246 246 253 252 258 254 254 252 251 250 252 254 250 251 245 245 258 265 270 275 280 282 284
232 230 216 215 223 226 224 220 229 232 235 229 228 229 228 230 231 233 233 239 242 245 248 249 247 251 252 252 255 249 253 254 241 237 244 250 260 267 277 279 279 281 281
238 231 223 229 229 229 230 227 227 230 232 235 230 229 230 234 228 226 227 234 232 234 228 225 228 232 234 238 236 241 237 240 244 247 262 271 273 273 277 280 280 277 278
256 240 233 229 229 233 237 232 232 233 230 235 237 235 234 236 239 233 232 236 238 240 240 246 248 253 255 249 252 259 261 258 260 266 268 272 274 276 277 279 276 277 279
273 261 245 238 237 236 238 239 237 239 239 239 239 239 238 242 239 240 235 238 247 246 247 247 251 252 258 259 259 261 263 264 266 269 269 270 273 276 278 279 278 280 280
270 267 260 249 242 237 240 240 241 242 243 244 244 244 243 243 245 247 245 241 245 249 252 251 254 255 256 262 263 263 265 267 267 270 271 270 270 272 277 278 278 278 278
272 266 266 261 255 247 244 244 244 246 247 249 246 247 245 246 244 246 247 249 249 250 255 255 258 259 262 260 263 266 267 269 269 268 270 272 274 274 277 278 274 273 275
274 268 263 262 264 259 255 248 248 247 245 246 246 249 248 246 246 248 248 249 252 252 252 254 256 258 260 262 263 265 267 266 268 267 269 271 273 275 273 274 272 271 271
274 269 265 260 259 264 264 260 255 250 251 250 249 249 250 250 249 247 248 249 251 251 253 252 254 256 258 260 262 264 263 264 265 268 268 270 273 272 270 272 270 268 269
275 273 268 262 257 257 258 262 264 259 251 250 251 251 249 249 251 249 250 252 253 252 251 253 255 255 255 257 259 260 262 263 264 265 267 269 269 269 268 268 266 266 266
271 272 270 264 258 256 255 256 260 262 261 256 250 250 250 251 250 250 252 253 254 255 256 257 256 257 258 259 260 261 261 262 263 262 263 264 265 266 266 265 265 265 265